Location: Franzen
(48.6167°N, 15.3833°E)
Time: 09:24:06
(UTC+00:00)

Altair - Pass Details

Date: 07 August 2021
Orbit: 1501 x 1682 km, 47.2° (Epoch: 20 September)

Event Time Altitude Azimuth Distance (km) Brightness Sun altitude
Rises 03:34:48 0° 282° (WNW) 4,702 9.6 -1.7°
Reaches altitude 10° 03:37:53 10° 281° (W) 3,700 9.0 -1.3°
Maximum altitude 03:47:04 68° 201° (SSW) 1,600 7.6 0.1°
Drops below altitude 10° 03:56:06 10° 120° (ESE) 3,651 10.1 1.5°
Sets 03:59:08 0° 118° (ESE) 4,637 10.6 1.9°
